Regional Weather Roundup
Issued by NWS

Home | Current Version | Previous Version | Text Only | Print | Product List | Glossary On
Versions: 1 2 3 4 5 6 7 8 9 10 11 12 13 14 15 16 17 18 19 20 21 22 23 24 25 26 27 28 29 30 31 32 33 34 35 36 37 38 39 40 41 42 43 44 45 46 47 48 49 50
000
ASCA42 TJSJ 150010
RWRPR
PUERTO RICO/U.S. VIRGIN ISLANDS HOURLY WEATHER ROUNDUP
NATIONAL WEATHER SERVICE SAN JUAN PR
800 PM AST SUN FEB 14 2016

PRZ001-004-150100-
PUERTO RICO

CITY           SKY/WX    TMP DP  RH WIND       PRES   REMARKS
SAN JUAN LMM   PTCLDY    79  70  73 E7        29.99R
AGUADILLA      RAIN      70  68  94 W5        30.01R
CEIBA          MOCLDY    73  70  88 N7        30.01R
$$

PRZ006-007-150100-
U.S. VIRGIN ISLANDS

CITY           SKY/WX    TMP DP  RH WIND       PRES   REMARKS
CHARLOTTE AMA  CLOUDY    77  68  73 E10       29.98R
CHRISTIANSTED  MOCLDY    75  66  73 NE7       29.98R
$$

HOURLY WEATHER ROUNDUP FOR THE NEWS MEDIA

CITY           SKY/WX    TMP DP  RH WIND       PRES   REMARKS
ORLANDO        PTCLDY    62  49  62 E9        30.21S
NEW YORK       CLEAR     16 -15  24 NW5       30.55R WCI   9
NEWARK         PTCLDY    16 -14  25 W6        30.54R WCI   7
CHICAGO        LGT SNOW  17  13  84 SE15      30.07F FOG     WCI   2
HARTFORD       CLEAR      5 -11  47 SW5       30.46R WCI  -4
BOSTON         CLEAR     10 -15  31 NW13      30.47R WCI  -5
DALLAS         CLOUDY    66  54  65 S5        29.83S
PHILADELPHIA   CLOUDY    17 -10  29 NW7       30.54R WCI   8
LOS ANGELES    PTSUNNY   64  51  62 W9        29.96F
WASHINGTON DC  CLOUDY    22  -1  36 E5        30.51R WCI  16


USA.gov is the U.S. government's official web portal to all federal, state and local government web resources and services.